• In Uzbekistan
  • List of Countries
  • For 7 days
  • Water Temperature
  • Satellite Maps
  • Weather Map
  • Weather Widgets
  • user-avatar
    Login

    Hourly Weather Hveredzh

    Today, 20 August, Monday

    Time Temperature Precipitation Wind Pressure Humidity
    00:00 +10°C° 0 mm 1 mps 602 mmHg 90%
    01:00 +9°C° 0 mm 1 mps 602 mmHg 90%
    02:00 +9°C° 0 mm 1 mps 602 mmHg 89%
    03:00 +9°C° 0 mm 1 mps 601 mmHg 90%
    04:00 +9°C° 0 mm 1 mps 602 mmHg 89%
    05:00 +9°C° 0 mm 1 mps 602 mmHg 88%
    06:00 +9°C° 0 mm 0 mps 602 mmHg 87%
    07:00 +11°C° 0 mm 1 mps 603 mmHg 80%
    08:00 +12°C° 0 mm 1 mps 604 mmHg 74%
    09:00 +14°C° 0 mm 2 mps 605 mmHg 68%
    10:00 +14°C° 0 mm 2 mps 605 mmHg 66%
    11:00 +15°C° 0 mm 2 mps 605 mmHg 64%
    12:00 +15°C° 0 mm 2 mps 605 mmHg 62%
    13:00 +15°C° 0 mm 2 mps 605 mmHg 62%
    14:00 +15°C° 0 mm 2 mps 605 mmHg 62%
    15:00 +15°C° 0 mm 2 mps 605 mmHg 61%
    16:00 +15°C° 0 mm 2 mps 605 mmHg 65%
    17:00 +14°C° 0 mm 2 mps 604 mmHg 68%
    18:00 +13°C° 0 mm 2 mps 604 mmHg 71%
    19:00 +12°C° 0 mm 2 mps 604 mmHg 74%
    20:00 +11°C° 0 mm 1 mps 603 mmHg 77%
    21:00 +10°C° 0 mm 1 mps 603 mmHg 80%
    22:00 +10°C° 0 mm 1 mps 603 mmHg 80%
    23:00 +10°C° 0 mm 1 mps 603 mmHg 80%

    Tomorrow, 21 August, Tuesday

    Time Temperature Precipitation Wind Pressure Humidity
    00:00 +8°C° 0 mm 2 mps 602 mmHg 80%
    01:00 +8°C° 0 mm 2 mps 602 mmHg 79%
    02:00 +8°C° 0 mm 2 mps 602 mmHg 79%
    03:00 +8°C° 0 mm 2 mps 602 mmHg 78%
    04:00 +8°C° 0 mm 2 mps 602 mmHg 76%
    05:00 +9°C° 0 mm 2 mps 602 mmHg 74%
    06:00 +9°C° 0 mm 2 mps 602 mmHg 73%
    07:00 +12°C° 0 mm 2 mps 603 mmHg 66%
    08:00 +14°C° 0 mm 2 mps 604 mmHg 59%
    09:00 +16°C° 0 mm 2 mps 605 mmHg 52%
    10:00 +17°C° 0 mm 2 mps 605 mmHg 51%
    11:00 +18°C° 0 mm 3 mps 605 mmHg 49%
    12:00 +19°C° 0 mm 3 mps 605 mmHg 48%
    13:00 +19°C° 0.2 mm 3 mps 605 mmHg 49%
    14:00 +19°C° 0.2 mm 3 mps 605 mmHg 51%
    15:00 +19°C° 0.2 mm 3 mps 604 mmHg 52%
    16:00 +18°C° 0.2 mm 2 mps 604 mmHg 57%
    17:00 +16°C° 0.2 mm 2 mps 603 mmHg 61%
    18:00 +15°C° 0.2 mm 2 mps 603 mmHg 66%
    19:00 +14°C° 0 mm 2 mps 603 mmHg 68%
    20:00 +13°C° 0 mm 2 mps 602 mmHg 70%
    21:00 +12°C° 0 mm 2 mps 602 mmHg 72%
    22:00 +12°C° 0 mm 2 mps 602 mmHg 71%
    23:00 +12°C° 0 mm 2 mps 602 mmHg 69%

    Day after tomorrow, 22 August, Wednesday

    Time Temperature Precipitation Wind Pressure Humidity
    00:00 +10°C° 0 mm 2 mps 602 mmHg 68%
    01:00 +10°C° 0 mm 2 mps 601 mmHg 66%
    02:00 +10°C° 0 mm 2 mps 601 mmHg 64%
    03:00 +10°C° 0 mm 2 mps 601 mmHg 62%
    04:00 +10°C° 0 mm 2 mps 601 mmHg 60%
    05:00 +12°C° 0 mm 2 mps 602 mmHg 59%
    06:00 +12°C° 0 mm 2 mps 602 mmHg 57%
    07:00 +14°C° 0 mm 1 mps 603 mmHg 53%
    08:00 +16°C° 0 mm 1 mps 603 mmHg 49%
    09:00 +19°C° 0 mm 1 mps 604 mmHg 44%
    10:00 +19°C° 0 mm 2 mps 604 mmHg 44%
    11:00 +20°C° 0 mm 2 mps 605 mmHg 44%
    12:00 +21°C° 0 mm 2 mps 605 mmHg 43%
    13:00 +21°C° 0.3 mm 2 mps 604 mmHg 45%
    14:00 +21°C° 0.3 mm 2 mps 604 mmHg 46%
    15:00 +20°C° 0.3 mm 2 mps 604 mmHg 47%
    16:00 +19°C° 0.2 mm 2 mps 603 mmHg 53%
    17:00 +19°C° 0.2 mm 1 mps 603 mmHg 58%
    18:00 +18°C° 0.2 mm 1 mps 603 mmHg 63%
    19:00 +16°C° 0 mm 1 mps 603 mmHg 66%
    20:00 +14°C° 0 mm 1 mps 602 mmHg 68%
    21:00 +13°C° 0 mm 1 mps 602 mmHg 70%
    22:00 +13°C° 0 mm 1 mps 602 mmHg 70%
    23:00 +13°C° 0 mm 1 mps 602 mmHg 70%

    23 August, Thursday

    Time Temperature Precipitation Wind Pressure Humidity
    00:00 +13°C° 0 mm 1 mps 602 mmHg 70%
    01:00 +12°C° 0 mm 1 mps 602 mmHg 71%
    02:00 +12°C° 0 mm 1 mps 602 mmHg 71%
    03:00 +12°C° 0 mm 1 mps 602 mmHg 72%
    04:00 +12°C° 0 mm 1 mps 602 mmHg 72%
    05:00 +13°C° 0 mm 1 mps 602 mmHg 72%
    06:00 +13°C° 0 mm 1 mps 602 mmHg 72%
    07:00 +15°C° 0 mm 1 mps 603 mmHg 66%
    08:00 +17°C° 0 mm 2 mps 604 mmHg 60%
    09:00 +18°C° 0 mm 2 mps 605 mmHg 54%
    10:00 +19°C° 0.2 mm 2 mps 605 mmHg 53%
    11:00 +19°C° 0.2 mm 2 mps 605 mmHg 53%
    12:00 +20°C° 0.2 mm 2 mps 605 mmHg 52%
    13:00 +19°C° 0.5 mm 2 mps 605 mmHg 52%
    14:00 +19°C° 0.5 mm 2 mps 605 mmHg 52%
    15:00 +19°C° 0.5 mm 2 mps 605 mmHg 53%
    16:00 +18°C° 0.1 mm 2 mps 604 mmHg 57%
    17:00 +18°C° 0.1 mm 1 mps 604 mmHg 61%
    18:00 +16°C° 0.1 mm 1 mps 604 mmHg 65%
    19:00 +15°C° 0 mm 1 mps 604 mmHg 68%
    20:00 +14°C° 0 mm 1 mps 603 mmHg 70%
    21:00 +13°C° 0 mm 1 mps 603 mmHg 73%
    22:00 +12°C° 0 mm 1 mps 603 mmHg 72%
    23:00 +12°C° 0 mm 1 mps 603 mmHg 71%

    24 August, Friday

    Time Temperature Precipitation Wind Pressure Humidity
    00:00 +12°C° 0 mm 1 mps 603 mmHg 70%
    01:00 +12°C° 0 mm 1 mps 603 mmHg 70%
    02:00 +11°C° 0 mm 1 mps 603 mmHg 69%
    03:00 +11°C° 0 mm 1 mps 602 mmHg 69%
    04:00 +12°C° 0 mm 1 mps 603 mmHg 68%
    05:00 +12°C° 0 mm 1 mps 603 mmHg 68%
    06:00 +12°C° 0 mm 1 mps 603 mmHg 67%
    07:00 +14°C° 0 mm 1 mps 604 mmHg 63%
    08:00 +16°C° 0 mm 1 mps 605 mmHg 58%
    09:00 +17°C° 0 mm 2 mps 606 mmHg 54%
    10:00 +18°C° 0 mm 2 mps 606 mmHg 53%
    11:00 +19°C° 0 mm 2 mps 606 mmHg 52%
    12:00 +19°C° 0 mm 2 mps 606 mmHg 51%
    13:00 +19°C° 0.1 mm 2 mps 605 mmHg 52%
    14:00 +19°C° 0.1 mm 2 mps 605 mmHg 53%
    15:00 +19°C° 0.1 mm 2 mps 605 mmHg 54%
    16:00 +18°C° 0 mm 2 mps 604 mmHg 58%
    17:00 +17°C° 0 mm 2 mps 604 mmHg 62%
    18:00 +16°C° 0 mm 1 mps 603 mmHg 66%
    19:00 +14°C° 0 mm 1 mps 603 mmHg 67%
    20:00 +13°C° 0 mm 1 mps 603 mmHg 68%
    21:00 +12°C° 0 mm 1 mps 603 mmHg 70%
    22:00 +12°C° 0 mm 1 mps 602 mmHg 68%
    23:00 +11°C° 0 mm 1 mps 602 mmHg 67%

    25 August, Saturday

    Time Temperature Precipitation Wind Pressure Humidity
    00:00 +11°C° 0 mm 1 mps 602 mmHg 65%
    01:00 +11°C° 0 mm 1 mps 602 mmHg 64%
    02:00 +11°C° 0 mm 1 mps 602 mmHg 64%
    03:00 +11°C° 0 mm 1 mps 601 mmHg 63%
    04:00 +11°C° 0 mm 1 mps 602 mmHg 62%
    05:00 +11°C° 0 mm 1 mps 602 mmHg 62%
    06:00 +12°C° 0 mm 1 mps 602 mmHg 61%
    07:00 +14°C° 0 mm 2 mps 603 mmHg 56%
    08:00 +16°C° 0 mm 2 mps 604 mmHg 51%
    09:00 +18°C° 0 mm 2 mps 605 mmHg 46%
    10:00 +19°C° 0 mm 2 mps 605 mmHg 45%
    11:00 +20°C° 0 mm 3 mps 605 mmHg 44%
    12:00 +20°C° 0 mm 3 mps 605 mmHg 43%
    13:00 +20°C° 0 mm 3 mps 605 mmHg 43%
    14:00 +20°C° 0 mm 3 mps 604 mmHg 44%
    15:00 +20°C° 0 mm 3 mps 604 mmHg 44%
    16:00 +19°C° 0 mm 2 mps 603 mmHg 49%
    17:00 +17°C° 0 mm 2 mps 603 mmHg 53%
    18:00 +16°C° 0 mm 2 mps 602 mmHg 58%
    19:00 +15°C° 0 mm 2 mps 602 mmHg 58%
    20:00 +14°C° 0 mm 2 mps 601 mmHg 59%
    21:00 +12°C° 0 mm 2 mps 601 mmHg 59%
    22:00 +12°C° 0 mm 2 mps 601 mmHg 57%
    23:00 +12°C° 0 mm 2 mps 601 mmHg 55%
    Show more